Year,Month,Day,Hour,Minute,Value (Times are PST for temperature in C)
2019,05,30,00,00,12.40
2019,05,30,00,01,12.40
2019,05,30,00,02,12.40
2019,05,30,00,03,12.40
2019,05,30,00,04,12.30
2019,05,30,00,05,12.30
2019,05,30,00,06,12.30
2019,05,30,00,07,12.30
2019,05,30,00,08,12.30
2019,05,30,00,09,12.20
2019,05,30,00,10,12.20
2019,05,30,00,11,12.20
2019,05,30,00,12,12.20
2019,05,30,00,13,12.10
2019,05,30,00,14,12.10
2019,05,30,00,15,12.10
2019,05,30,00,16,12.10
2019,05,30,00,17,12.10
2019,05,30,00,18,12.00
2019,05,30,00,19,12.00
2019,05,30,00,20,12.00
2019,05,30,00,21,11.90
2019,05,30,00,22,11.90
2019,05,30,00,23,11.90
2019,05,30,00,24,11.90
2019,05,30,00,25,11.90
2019,05,30,00,26,11.80
2019,05,30,00,27,11.80
2019,05,30,00,28,11.80
2019,05,30,00,29,11.80
2019,05,30,00,30,11.80
2019,05,30,00,31,11.80
2019,05,30,00,32,11.80
2019,05,30,00,33,11.70
2019,05,30,00,34,11.70
2019,05,30,00,35,11.70
2019,05,30,00,36,11.70
2019,05,30,00,37,11.70
2019,05,30,00,38,11.70
2019,05,30,00,39,11.60
2019,05,30,00,40,11.60
2019,05,30,00,41,11.60
2019,05,30,00,42,11.60
2019,05,30,00,43,11.60
2019,05,30,00,44,11.60
2019,05,30,00,45,11.60
2019,05,30,00,46,11.50
2019,05,30,00,47,11.50
2019,05,30,00,48,11.50
2019,05,30,00,49,11.40
2019,05,30,00,50,11.40
2019,05,30,00,51,11.40
2019,05,30,00,52,11.40
2019,05,30,00,53,11.40
2019,05,30,00,54,11.30
2019,05,30,00,55,11.30
2019,05,30,00,56,11.30
2019,05,30,00,57,11.30
2019,05,30,00,58,11.30
2019,05,30,00,59,11.30
2019,05,30,01,00,11.20
2019,05,30,01,01,11.20
2019,05,30,01,02,11.20
2019,05,30,01,03,11.20
2019,05,30,01,04,11.10
2019,05,30,01,05,11.10
2019,05,30,01,06,11.10
2019,05,30,01,07,11.10
2019,05,30,01,08,11.00
2019,05,30,01,09,11.00
2019,05,30,01,10,11.00
2019,05,30,01,11,11.00
2019,05,30,01,12,11.00
2019,05,30,01,13,11.00
2019,05,30,01,14,10.90
2019,05,30,01,15,10.90
2019,05,30,01,16,10.90
2019,05,30,01,17,10.90
2019,05,30,01,18,10.90
2019,05,30,01,19,10.80
2019,05,30,01,20,10.80
2019,05,30,01,21,10.80
2019,05,30,01,22,10.80
2019,05,30,01,23,10.80
2019,05,30,01,24,10.70
2019,05,30,01,25,10.70
2019,05,30,01,26,10.70
2019,05,30,01,27,10.70
2019,05,30,01,28,10.60
2019,05,30,01,29,10.60
2019,05,30,01,30,10.60
2019,05,30,01,31,10.60
2019,05,30,01,32,10.60
2019,05,30,01,33,10.60
2019,05,30,01,34,10.50
2019,05,30,01,35,10.50
2019,05,30,01,36,10.50
2019,05,30,01,37,10.40
2019,05,30,01,38,10.40
2019,05,30,01,39,10.40
2019,05,30,01,40,10.40
2019,05,30,01,41,10.40
2019,05,30,01,42,10.40
2019,05,30,01,43,10.40
2019,05,30,01,44,10.30
2019,05,30,01,45,10.30
2019,05,30,01,46,10.30
2019,05,30,01,47,10.30
2019,05,30,01,48,10.30
2019,05,30,01,49,10.30
2019,05,30,01,50,10.30
2019,05,30,01,51,10.30
2019,05,30,01,52,10.30
2019,05,30,01,53,10.30
2019,05,30,01,54,10.20
2019,05,30,01,55,10.20
2019,05,30,01,56,10.20
2019,05,30,01,57,10.20
2019,05,30,01,58,10.20
2019,05,30,01,59,10.20
2019,05,30,02,00,10.20
2019,05,30,02,01,10.20
2019,05,30,02,02,10.20
2019,05,30,02,03,10.20
2019,05,30,02,04,10.20
2019,05,30,02,05,10.10
2019,05,30,02,06,10.10
2019,05,30,02,07,10.10
2019,05,30,02,08,10.10
2019,05,30,02,09,10.10
2019,05,30,02,10,10.10
2019,05,30,02,11,10.10
2019,05,30,02,12,10.10
2019,05,30,02,13,10.10
2019,05,30,02,14,10.10
2019,05,30,02,15,10.10
2019,05,30,02,16,10.10
2019,05,30,02,17,10.10
2019,05,30,02,18,10.10
2019,05,30,02,19,10.10
2019,05,30,02,20,10.10
2019,05,30,02,21,10.10
2019,05,30,02,22,10.10
2019,05,30,02,23,10.10
2019,05,30,02,24,10.10
2019,05,30,02,25,10.20
2019,05,30,02,26,10.20
2019,05,30,02,27,10.20
2019,05,30,02,28,10.20
2019,05,30,02,29,10.20
2019,05,30,02,30,10.20
2019,05,30,02,31,10.20
2019,05,30,02,32,10.20
2019,05,30,02,33,10.20
2019,05,30,02,34,10.10
2019,05,30,02,35,10.10
2019,05,30,02,36,10.10
2019,05,30,02,37,10.10
2019,05,30,02,38,10.10
2019,05,30,02,39,10.10
2019,05,30,02,40,10.10
2019,05,30,02,41,10.00
2019,05,30,02,42,10.10
2019,05,30,02,43,10.00
2019,05,30,02,44,10.00
2019,05,30,02,45,10.00
2019,05,30,02,46,9.90
2019,05,30,02,47,9.90
2019,05,30,02,48,9.90
2019,05,30,02,49,9.90
2019,05,30,02,50,9.90
2019,05,30,02,51,9.90
2019,05,30,02,52,9.90
2019,05,30,02,53,9.80
2019,05,30,02,54,9.80
2019,05,30,02,55,9.80
2019,05,30,02,56,9.80
2019,05,30,02,57,9.80
2019,05,30,02,58,9.80
2019,05,30,02,59,9.80
2019,05,30,03,00,9.80
2019,05,30,03,01,9.80
2019,05,30,03,02,9.80
2019,05,30,03,03,9.80
2019,05,30,03,04,9.80
2019,05,30,03,05,9.80
2019,05,30,03,06,9.70
2019,05,30,03,07,9.70
2019,05,30,03,08,9.70
2019,05,30,03,09,9.70
2019,05,30,03,10,9.70
2019,05,30,03,11,9.70
2019,05,30,03,12,9.60
2019,05,30,03,13,9.60
2019,05,30,03,14,9.60
2019,05,30,03,15,9.60
2019,05,30,03,16,9.60
2019,05,30,03,17,9.60
2019,05,30,03,18,9.50
2019,05,30,03,19,9.50
2019,05,30,03,20,9.50
2019,05,30,03,21,9.50
2019,05,30,03,22,9.50
2019,05,30,03,23,9.50
2019,05,30,03,24,9.40
2019,05,30,03,25,9.40
2019,05,30,03,26,9.40
2019,05,30,03,27,9.40
2019,05,30,03,28,9.40
2019,05,30,03,29,9.40
2019,05,30,03,30,9.40
2019,05,30,03,31,9.40
2019,05,30,03,32,9.40
2019,05,30,03,33,9.40
2019,05,30,03,34,9.40
2019,05,30,03,35,9.40
2019,05,30,03,36,9.40
2019,05,30,03,37,9.40
2019,05,30,03,38,9.40
2019,05,30,03,39,9.40
2019,05,30,03,40,9.30
2019,05,30,03,41,9.30
2019,05,30,03,42,9.30
2019,05,30,03,43,9.30
2019,05,30,03,44,9.30
2019,05,30,03,45,9.30
2019,05,30,03,46,9.30
2019,05,30,03,47,9.30
2019,05,30,03,48,9.30
2019,05,30,03,49,9.30
2019,05,30,03,50,9.30
2019,05,30,03,51,9.30
2019,05,30,03,52,9.30
2019,05,30,03,53,9.30
2019,05,30,03,54,9.30
2019,05,30,03,55,9.30
2019,05,30,03,56,9.30
2019,05,30,03,57,9.30
2019,05,30,03,58,9.30
2019,05,30,03,59,9.30
2019,05,30,04,00,9.30
2019,05,30,04,01,9.30
2019,05,30,04,02,9.30
2019,05,30,04,03,9.30
2019,05,30,04,04,9.30
2019,05,30,04,05,9.30
2019,05,30,04,06,9.20
2019,05,30,04,07,9.20
2019,05,30,04,08,9.30
2019,05,30,04,09,9.20
2019,05,30,04,10,9.20
2019,05,30,04,11,9.20
2019,05,30,04,12,9.20
2019,05,30,04,13,9.20
2019,05,30,04,14,9.20
2019,05,30,04,15,9.20
2019,05,30,04,16,9.20
2019,05,30,04,17,9.20
2019,05,30,04,18,9.20
2019,05,30,04,19,9.20
2019,05,30,04,20,9.20
2019,05,30,04,21,9.10
2019,05,30,04,22,9.10
2019,05,30,04,23,9.20
2019,05,30,04,24,9.20
2019,05,30,04,25,9.20
2019,05,30,04,26,9.20
2019,05,30,04,27,9.20
2019,05,30,04,28,9.20
2019,05,30,04,29,9.20
2019,05,30,04,30,9.20
2019,05,30,04,31,9.30
2019,05,30,04,32,9.30
2019,05,30,04,33,9.30
2019,05,30,04,34,9.30
2019,05,30,04,35,9.20
2019,05,30,04,36,9.20
2019,05,30,04,37,9.20
2019,05,30,04,38,9.20
2019,05,30,04,39,9.20
2019,05,30,04,40,9.20
2019,05,30,04,41,9.20
2019,05,30,04,42,9.20
2019,05,30,04,43,9.20
2019,05,30,04,44,9.20
2019,05,30,04,45,9.20
2019,05,30,04,46,9.20
2019,05,30,04,47,9.20
2019,05,30,04,48,9.20
2019,05,30,04,49,9.20
2019,05,30,04,50,9.20
2019,05,30,04,51,9.20
2019,05,30,04,52,9.10
2019,05,30,04,53,9.10
2019,05,30,04,54,9.10
2019,05,30,04,55,9.10
2019,05,30,04,56,9.10
2019,05,30,04,57,9.10
2019,05,30,04,58,9.00
2019,05,30,04,59,9.10
2019,05,30,05,00,9.10
2019,05,30,05,01,9.10
2019,05,30,05,02,9.00
2019,05,30,05,03,9.10
2019,05,30,05,04,9.10
2019,05,30,05,05,9.10
2019,05,30,05,06,9.10
2019,05,30,05,07,9.10
2019,05,30,05,08,9.10
2019,05,30,05,09,9.10
2019,05,30,05,10,9.10
2019,05,30,05,11,9.10
2019,05,30,05,12,9.10
2019,05,30,05,13,9.10
2019,05,30,05,14,9.10
2019,05,30,05,15,9.10
2019,05,30,05,16,9.10
2019,05,30,05,17,9.10
2019,05,30,05,18,9.10
2019,05,30,05,19,9.10
2019,05,30,05,20,9.10
2019,05,30,05,21,9.10
2019,05,30,05,22,9.10
2019,05,30,05,23,9.10
2019,05,30,05,24,9.10
2019,05,30,05,25,9.10
2019,05,30,05,26,9.10
2019,05,30,05,27,9.00
2019,05,30,05,28,9.00
2019,05,30,05,29,9.00
2019,05,30,05,30,9.00
2019,05,30,05,31,9.00
2019,05,30,05,32,9.00
2019,05,30,05,33,9.00
2019,05,30,05,34,9.00
2019,05,30,05,35,9.00
2019,05,30,05,36,9.00
2019,05,30,05,37,9.00
2019,05,30,05,38,9.00
2019,05,30,05,39,8.90
2019,05,30,05,40,8.90
2019,05,30,05,41,8.90
2019,05,30,05,42,8.90
2019,05,30,05,43,8.90
2019,05,30,05,44,8.90
2019,05,30,05,45,8.90
2019,05,30,05,46,8.90
2019,05,30,05,47,8.90
2019,05,30,05,48,8.90
2019,05,30,05,49,8.90
2019,05,30,05,50,8.90
2019,05,30,05,51,8.90
2019,05,30,05,52,8.90
2019,05,30,05,53,8.90
2019,05,30,05,54,8.90
2019,05,30,05,55,8.90
2019,05,30,05,56,8.90
2019,05,30,05,57,8.90
2019,05,30,05,58,8.90
2019,05,30,05,59,8.90
2019,05,30,06,00,8.90
2019,05,30,06,01,8.90
2019,05,30,06,02,8.90
2019,05,30,06,03,8.90
2019,05,30,06,04,8.90
2019,05,30,06,05,8.90
2019,05,30,06,06,8.90
2019,05,30,06,07,8.90
2019,05,30,06,08,8.90
2019,05,30,06,09,8.90
2019,05,30,06,10,8.90
2019,05,30,06,11,9.00
2019,05,30,06,12,9.00
2019,05,30,06,13,9.00
2019,05,30,06,14,9.00
2019,05,30,06,15,9.00
2019,05,30,06,16,9.00
2019,05,30,06,17,9.10
2019,05,30,06,18,9.10
2019,05,30,06,19,9.10
2019,05,30,06,20,9.10
2019,05,30,06,21,9.10
2019,05,30,06,22,9.10
2019,05,30,06,23,9.10
2019,05,30,06,24,9.10
2019,05,30,06,25,9.10
2019,05,30,06,26,9.20
2019,05,30,06,27,9.20
2019,05,30,06,28,9.20
2019,05,30,06,29,9.20
2019,05,30,06,30,9.20
2019,05,30,06,31,9.20
2019,05,30,06,32,9.20
2019,05,30,06,33,9.30
2019,05,30,06,34,9.30
2019,05,30,06,35,9.30
2019,05,30,06,36,9.30
2019,05,30,06,37,9.40
2019,05,30,06,38,9.40
2019,05,30,06,39,9.40
2019,05,30,06,40,9.50
2019,05,30,06,41,9.50
2019,05,30,06,42,9.50
2019,05,30,06,43,9.60
2019,05,30,06,44,9.60
2019,05,30,06,45,9.70
2019,05,30,06,46,9.70
2019,05,30,06,47,9.70
2019,05,30,06,48,9.80
2019,05,30,06,49,9.80
2019,05,30,06,50,9.90
2019,05,30,06,51,10.00
2019,05,30,06,52,10.00
2019,05,30,06,53,10.10
2019,05,30,06,54,10.10
2019,05,30,06,55,10.20
2019,05,30,06,56,10.20
2019,05,30,06,57,10.20
2019,05,30,06,58,10.30
2019,05,30,06,59,10.30
2019,05,30,07,00,10.30
2019,05,30,07,01,10.40
2019,05,30,07,02,10.40
2019,05,30,07,03,10.50
2019,05,30,07,04,10.50
2019,05,30,07,05,10.60
2019,05,30,07,06,10.60
2019,05,30,07,07,10.60
2019,05,30,07,08,10.70
2019,05,30,07,09,10.70
2019,05,30,07,10,10.70
2019,05,30,07,11,10.80
2019,05,30,07,12,10.80
2019,05,30,07,13,10.90
2019,05,30,07,14,11.00
2019,05,30,07,15,11.10
2019,05,30,07,16,11.10
2019,05,30,07,17,11.20
2019,05,30,07,18,11.30
2019,05,30,07,19,11.30
2019,05,30,07,20,11.30
2019,05,30,07,21,11.40
2019,05,30,07,22,11.40
2019,05,30,07,23,11.40
2019,05,30,07,24,11.50
2019,05,30,07,25,11.50
2019,05,30,07,26,11.60
2019,05,30,07,27,11.60
2019,05,30,07,28,11.70
2019,05,30,07,29,11.70
2019,05,30,07,30,11.70
2019,05,30,07,31,11.70
2019,05,30,07,32,11.70
2019,05,30,07,33,11.80
2019,05,30,07,34,11.80
2019,05,30,07,35,11.80
2019,05,30,07,36,11.80
2019,05,30,07,37,11.90
2019,05,30,07,38,11.90
2019,05,30,07,39,11.90
2019,05,30,07,40,11.90
2019,05,30,07,41,11.90
2019,05,30,07,42,11.90
2019,05,30,07,43,11.90
2019,05,30,07,44,12.00
2019,05,30,07,45,11.90
2019,05,30,07,46,12.00
2019,05,30,07,47,12.00
2019,05,30,07,48,12.00
2019,05,30,07,49,12.00
2019,05,30,07,50,12.00
2019,05,30,07,51,12.10
2019,05,30,07,52,12.10
2019,05,30,07,53,12.10
2019,05,30,07,54,12.10
2019,05,30,07,55,12.10
2019,05,30,07,56,12.10
2019,05,30,07,57,12.10
2019,05,30,07,58,12.20
2019,05,30,07,59,12.20
2019,05,30,08,00,12.20
2019,05,30,08,01,12.20
2019,05,30,08,02,12.20
2019,05,30,08,03,12.20
2019,05,30,08,04,12.20
2019,05,30,08,05,12.20
2019,05,30,08,06,12.20
2019,05,30,08,07,12.30
2019,05,30,08,08,12.30
2019,05,30,08,09,12.30
2019,05,30,08,10,12.30
2019,05,30,08,11,12.30
2019,05,30,08,12,12.30
2019,05,30,08,13,12.30
2019,05,30,08,14,12.30
2019,05,30,08,15,12.30
2019,05,30,08,16,12.30
2019,05,30,08,17,12.30
2019,05,30,08,18,12.30
2019,05,30,08,19,12.30
2019,05,30,08,20,12.30
2019,05,30,08,21,12.30
2019,05,30,08,22,12.30
2019,05,30,08,23,12.30
2019,05,30,08,24,12.30
2019,05,30,08,25,12.30
2019,05,30,08,26,12.30
2019,05,30,08,27,12.30
2019,05,30,08,28,12.30
2019,05,30,08,29,12.40
2019,05,30,08,30,12.40
2019,05,30,08,31,12.40
2019,05,30,08,32,12.40
2019,05,30,08,33,12.50
2019,05,30,08,34,12.50
2019,05,30,08,35,12.60
2019,05,30,08,36,12.60
2019,05,30,08,37,12.70
2019,05,30,08,38,12.80
2019,05,30,08,39,12.90
2019,05,30,08,40,12.90
2019,05,30,08,41,13.00
2019,05,30,08,42,13.10
2019,05,30,08,43,13.20
2019,05,30,08,44,13.30
2019,05,30,08,45,13.40
2019,05,30,08,46,13.50
2019,05,30,08,47,13.60
2019,05,30,08,48,13.70
2019,05,30,08,49,13.80
2019,05,30,08,50,13.90
2019,05,30,08,51,13.90
2019,05,30,08,52,14.10
2019,05,30,08,53,14.10
2019,05,30,08,54,14.20
2019,05,30,08,55,14.30
2019,05,30,08,56,14.40
2019,05,30,08,57,14.40
2019,05,30,08,58,14.50
2019,05,30,08,59,14.60
2019,05,30,09,00,14.70
2019,05,30,09,01,14.70
2019,05,30,09,02,14.80
2019,05,30,09,03,14.80
2019,05,30,09,04,14.90
2019,05,30,09,05,15.00
2019,05,30,09,06,15.00
2019,05,30,09,07,15.00
2019,05,30,09,08,15.00
2019,05,30,09,09,15.00
2019,05,30,09,10,14.90
2019,05,30,09,11,14.90
2019,05,30,09,12,14.90
2019,05,30,09,13,14.90
2019,05,30,09,14,14.90
2019,05,30,09,15,14.90
2019,05,30,09,16,14.90
2019,05,30,09,17,15.00
2019,05,30,09,18,15.00
2019,05,30,09,19,15.10
2019,05,30,09,20,15.10
2019,05,30,09,21,15.20
2019,05,30,09,22,15.30
2019,05,30,09,23,15.40
2019,05,30,09,24,15.40
2019,05,30,09,25,15.50
2019,05,30,09,26,15.60
2019,05,30,09,27,15.70
2019,05,30,09,28,15.80
2019,05,30,09,29,15.80
2019,05,30,09,30,15.90
2019,05,30,09,31,16.00
2019,05,30,09,32,16.00
2019,05,30,09,33,16.10
2019,05,30,09,34,16.20
2019,05,30,09,35,16.30
2019,05,30,09,36,16.30
2019,05,30,09,37,16.40
2019,05,30,09,38,16.50
2019,05,30,09,39,16.60
2019,05,30,09,40,16.70
2019,05,30,09,41,16.70
2019,05,30,09,42,16.80
2019,05,30,09,43,16.90
2019,05,30,09,44,16.90
2019,05,30,09,45,16.90
2019,05,30,09,46,16.90
2019,05,30,09,47,16.90
2019,05,30,09,48,17.00
2019,05,30,09,49,16.90
2019,05,30,09,50,17.00
2019,05,30,09,51,17.00
2019,05,30,09,52,17.00
2019,05,30,09,53,17.10
2019,05,30,09,54,17.10
2019,05,30,09,55,17.10
2019,05,30,09,56,17.20
2019,05,30,09,57,17.30
2019,05,30,09,58,17.40
2019,05,30,09,59,17.40
2019,05,30,10,00,17.50
2019,05,30,10,01,17.50
2019,05,30,10,02,17.60
2019,05,30,10,03,17.60
2019,05,30,10,04,17.70
2019,05,30,10,05,17.70
2019,05,30,10,06,17.80
2019,05,30,10,07,17.80
2019,05,30,10,08,17.80
2019,05,30,10,09,17.90
2019,05,30,10,10,17.90
2019,05,30,10,11,18.00
2019,05,30,10,12,18.10
2019,05,30,10,13,18.10
2019,05,30,10,14,18.20
2019,05,30,10,15,18.30
2019,05,30,10,16,18.30
2019,05,30,10,17,18.40
2019,05,30,10,18,18.50
2019,05,30,10,19,18.60
2019,05,30,10,20,18.60
2019,05,30,10,21,18.70
2019,05,30,10,22,18.70
2019,05,30,10,23,18.80
2019,05,30,10,24,18.80
2019,05,30,10,25,18.80
2019,05,30,10,26,18.80
2019,05,30,10,27,18.80
2019,05,30,10,28,18.80
2019,05,30,10,29,18.80
2019,05,30,10,30,18.80
2019,05,30,10,31,18.80
2019,05,30,10,32,18.80
2019,05,30,10,33,18.80
2019,05,30,10,34,18.80
2019,05,30,10,35,18.80
2019,05,30,10,36,18.90
2019,05,30,10,37,18.90
2019,05,30,10,38,18.90
2019,05,30,10,39,19.00
2019,05,30,10,40,19.10
2019,05,30,10,41,19.10
2019,05,30,10,42,19.10
2019,05,30,10,43,19.20
2019,05,30,10,44,19.20
2019,05,30,10,45,19.20
2019,05,30,10,46,19.30
2019,05,30,10,47,19.30
2019,05,30,10,48,19.40
2019,05,30,10,49,19.40
2019,05,30,10,50,19.50
2019,05,30,10,51,19.50
2019,05,30,10,52,19.60
2019,05,30,10,53,19.60
2019,05,30,10,54,19.60
2019,05,30,10,55,19.60
2019,05,30,10,56,19.70
2019,05,30,10,57,19.60
2019,05,30,10,58,19.60
2019,05,30,10,59,19.60
2019,05,30,11,00,19.60
2019,05,30,11,01,19.70
2019,05,30,11,02,19.70
2019,05,30,11,03,19.80
2019,05,30,11,04,19.70
2019,05,30,11,05,19.70
2019,05,30,11,06,19.70
2019,05,30,11,07,19.60
2019,05,30,11,08,19.60
2019,05,30,11,09,19.60
2019,05,30,11,10,19.70
2019,05,30,11,11,19.70
2019,05,30,11,12,19.80
2019,05,30,11,13,19.80
2019,05,30,11,14,19.80
2019,05,30,11,15,19.90
2019,05,30,11,16,19.90
2019,05,30,11,17,20.00
2019,05,30,11,18,20.00
2019,05,30,11,19,20.10
2019,05,30,11,20,20.10
2019,05,30,11,21,20.10
2019,05,30,11,22,20.20
2019,05,30,11,23,20.20
2019,05,30,11,24,20.30
2019,05,30,11,25,20.30
2019,05,30,11,26,20.30
2019,05,30,11,27,20.30
2019,05,30,11,28,20.40
2019,05,30,11,29,20.50
2019,05,30,11,30,20.50
2019,05,30,11,31,20.60
2019,05,30,11,32,20.60
2019,05,30,11,33,20.70
2019,05,30,11,34,20.70
2019,05,30,11,35,20.70
2019,05,30,11,36,20.70
2019,05,30,11,37,20.70
2019,05,30,11,38,20.60
2019,05,30,11,39,20.50
2019,05,30,11,40,20.40
2019,05,30,11,41,20.30
2019,05,30,11,42,20.30
2019,05,30,11,43,20.30
2019,05,30,11,44,20.30
2019,05,30,11,45,20.30
2019,05,30,11,46,20.30
2019,05,30,11,47,20.30
2019,05,30,11,48,20.30
2019,05,30,11,49,20.40
2019,05,30,11,50,20.40
2019,05,30,11,51,20.50
2019,05,30,11,52,20.50
2019,05,30,11,53,20.50
2019,05,30,11,54,20.50
2019,05,30,11,55,20.50
2019,05,30,11,56,20.60
2019,05,30,11,57,20.60
2019,05,30,11,58,20.70
2019,05,30,11,59,20.70
2019,05,30,12,00,20.80
2019,05,30,12,01,20.80
2019,05,30,12,02,20.80
2019,05,30,12,03,20.80
2019,05,30,12,04,20.70
2019,05,30,12,05,20.60
2019,05,30,12,06,20.60
2019,05,30,12,07,20.50
2019,05,30,12,08,20.40
2019,05,30,12,09,20.40
2019,05,30,12,10,20.30
2019,05,30,12,11,20.30
2019,05,30,12,12,20.40
2019,05,30,12,13,20.40
2019,05,30,12,14,20.40
2019,05,30,12,15,20.40
2019,05,30,12,16,20.40
2019,05,30,12,17,20.40
2019,05,30,12,18,20.30
2019,05,30,12,19,20.20
2019,05,30,12,20,20.10
2019,05,30,12,21,20.00
2019,05,30,12,22,19.90
2019,05,30,12,23,19.80
2019,05,30,12,24,19.80
2019,05,30,12,25,19.80
2019,05,30,12,26,19.70
2019,05,30,12,27,19.70
2019,05,30,12,28,19.80
2019,05,30,12,29,19.80
2019,05,30,12,30,19.80
2019,05,30,12,31,19.80
2019,05,30,12,32,19.80
2019,05,30,12,33,19.90
2019,05,30,12,34,19.90
2019,05,30,12,35,19.90
2019,05,30,12,36,19.90
2019,05,30,12,37,19.90
2019,05,30,12,38,19.90
2019,05,30,12,39,19.90
2019,05,30,12,40,19.90
2019,05,30,12,41,20.00
2019,05,30,12,42,20.00
2019,05,30,12,43,20.00
2019,05,30,12,44,20.10
2019,05,30,12,45,20.10
2019,05,30,12,46,20.10
2019,05,30,12,47,20.10
2019,05,30,12,48,20.10
2019,05,30,12,49,20.10
2019,05,30,12,50,20.20
2019,05,30,12,51,20.20
2019,05,30,12,52,20.20
2019,05,30,12,53,20.20
2019,05,30,12,54,20.20
2019,05,30,12,55,20.20
2019,05,30,12,56,20.30
2019,05,30,12,57,20.30
2019,05,30,12,58,20.40
2019,05,30,12,59,20.40
2019,05,30,13,00,20.50
2019,05,30,13,01,20.60
2019,05,30,13,02,20.60
2019,05,30,13,03,20.70
2019,05,30,13,04,20.80
2019,05,30,13,05,20.80
2019,05,30,13,06,20.90
2019,05,30,13,07,21.00
2019,05,30,13,08,21.00
2019,05,30,13,09,21.10
2019,05,30,13,10,21.20
2019,05,30,13,11,21.20
2019,05,30,13,12,21.20
2019,05,30,13,13,21.30
2019,05,30,13,14,21.30
2019,05,30,13,15,21.30
2019,05,30,13,16,21.20
2019,05,30,13,17,21.20
2019,05,30,13,18,21.20
2019,05,30,13,19,21.20
2019,05,30,13,20,21.20
2019,05,30,13,21,21.20
2019,05,30,13,22,21.20
2019,05,30,13,23,21.10
2019,05,30,13,24,21.10
2019,05,30,13,25,21.10
2019,05,30,13,26,21.00
2019,05,30,13,27,21.00
2019,05,30,13,28,21.10
2019,05,30,13,29,21.10
2019,05,30,13,30,21.20
2019,05,30,13,31,21.30
2019,05,30,13,32,21.30
2019,05,30,13,33,21.30
2019,05,30,13,34,21.40
2019,05,30,13,35,21.40
2019,05,30,13,36,21.50
2019,05,30,13,37,21.60
2019,05,30,13,38,21.60
2019,05,30,13,39,21.60
2019,05,30,13,40,21.60
2019,05,30,13,41,21.60
2019,05,30,13,42,21.60
2019,05,30,13,43,21.60
2019,05,30,13,44,21.50
2019,05,30,13,45,21.50
2019,05,30,13,46,21.50
2019,05,30,13,47,21.50
2019,05,30,13,48,21.60
2019,05,30,13,49,21.60
2019,05,30,13,50,21.70
2019,05,30,13,51,21.70
2019,05,30,13,52,21.80
2019,05,30,13,53,21.90
2019,05,30,13,54,21.90
2019,05,30,13,55,22.00
2019,05,30,13,56,22.10
2019,05,30,13,57,22.10
2019,05,30,13,58,22.10
2019,05,30,13,59,22.10
2019,05,30,14,00,22.00
2019,05,30,14,01,22.00
2019,05,30,14,02,22.00
2019,05,30,14,03,22.00
2019,05,30,14,04,22.00
2019,05,30,14,05,22.00
2019,05,30,14,06,22.10
2019,05,30,14,07,22.10
2019,05,30,14,08,22.10
2019,05,30,14,09,22.20
2019,05,30,14,10,22.20
2019,05,30,14,11,22.30
2019,05,30,14,12,22.30
2019,05,30,14,13,22.40
2019,05,30,14,14,22.40
2019,05,30,14,15,22.40
2019,05,30,14,16,22.30
2019,05,30,14,17,22.30
2019,05,30,14,18,22.30
2019,05,30,14,19,22.30
2019,05,30,14,20,22.30
2019,05,30,14,21,22.30
2019,05,30,14,22,22.20
2019,05,30,14,23,22.10
2019,05,30,14,24,22.10
2019,05,30,14,25,22.10
2019,05,30,14,26,22.10
2019,05,30,14,27,22.10
2019,05,30,14,28,22.10
2019,05,30,14,29,22.10
2019,05,30,14,30,22.10
2019,05,30,14,31,22.10
2019,05,30,14,32,22.10
2019,05,30,14,33,22.10
2019,05,30,14,34,22.10
2019,05,30,14,35,22.00
2019,05,30,14,36,22.00
2019,05,30,14,37,22.00
2019,05,30,14,38,21.90
2019,05,30,14,39,21.90
2019,05,30,14,40,21.90
2019,05,30,14,41,21.90
2019,05,30,14,42,21.90
2019,05,30,14,43,21.90
2019,05,30,14,44,22.00
2019,05,30,14,45,22.10
2019,05,30,14,46,22.10
2019,05,30,14,47,22.20
2019,05,30,14,48,22.30
2019,05,30,14,49,22.30
2019,05,30,14,50,22.40
2019,05,30,14,51,22.50
2019,05,30,14,52,22.50
2019,05,30,14,53,22.60
2019,05,30,14,54,22.70
2019,05,30,14,55,22.80
2019,05,30,14,56,22.90
2019,05,30,14,57,23.00
2019,05,30,14,58,23.10
2019,05,30,14,59,23.10
2019,05,30,15,00,23.20
2019,05,30,15,01,23.30
2019,05,30,15,02,23.30
2019,05,30,15,03,23.30
2019,05,30,15,04,23.40
2019,05,30,15,05,23.40
2019,05,30,15,06,23.50
2019,05,30,15,07,23.60
2019,05,30,15,08,23.60
2019,05,30,15,09,23.60
2019,05,30,15,10,23.70
2019,05,30,15,11,23.70
2019,05,30,15,12,23.70
2019,05,30,15,13,23.80
2019,05,30,15,14,23.80
2019,05,30,15,15,23.80
2019,05,30,15,16,23.80
2019,05,30,15,17,23.80
2019,05,30,15,18,23.70
2019,05,30,15,19,23.70
2019,05,30,15,20,23.70
2019,05,30,15,21,23.70
2019,05,30,15,22,23.70
2019,05,30,15,23,23.60
2019,05,30,15,24,23.60
2019,05,30,15,25,23.60
2019,05,30,15,26,23.50
2019,05,30,15,27,23.40
2019,05,30,15,28,23.30
2019,05,30,15,29,23.30
2019,05,30,15,30,23.20
2019,05,30,15,31,23.10
2019,05,30,15,32,23.00
2019,05,30,15,33,23.00
2019,05,30,15,34,22.90
2019,05,30,15,35,22.80
2019,05,30,15,36,22.80
2019,05,30,15,37,22.80
2019,05,30,15,38,22.80
2019,05,30,15,39,22.80
2019,05,30,15,40,22.80
2019,05,30,15,41,22.80
2019,05,30,15,42,22.80
2019,05,30,15,43,22.90
2019,05,30,15,44,22.90
2019,05,30,15,45,23.00
2019,05,30,15,46,23.10
2019,05,30,15,47,23.20
2019,05,30,15,48,23.30
2019,05,30,15,49,23.30
2019,05,30,15,50,23.40
2019,05,30,15,51,23.50
2019,05,30,15,52,23.40
2019,05,30,15,53,23.30
2019,05,30,15,54,23.20
2019,05,30,15,55,23.10
2019,05,30,15,56,23.10
2019,05,30,15,57,23.10
2019,05,30,15,58,23.10
2019,05,30,15,59,23.20
2019,05,30,16,00,23.20
2019,05,30,16,01,23.20
2019,05,30,16,02,23.30
2019,05,30,16,03,23.30
2019,05,30,16,04,23.30
2019,05,30,16,05,23.40
2019,05,30,16,06,23.40
2019,05,30,16,07,23.40
2019,05,30,16,08,23.40
2019,05,30,16,09,23.30
2019,05,30,16,10,23.30
2019,05,30,16,11,23.30
2019,05,30,16,12,23.30
2019,05,30,16,13,23.30
2019,05,30,16,14,23.30
2019,05,30,16,15,23.30
2019,05,30,16,16,23.30
2019,05,30,16,17,23.30
2019,05,30,16,18,23.30
2019,05,30,16,19,23.20
2019,05,30,16,20,23.30
2019,05,30,16,21,23.20
2019,05,30,16,22,23.20
2019,05,30,16,23,23.20
2019,05,30,16,24,23.10
2019,05,30,16,25,23.10
2019,05,30,16,26,23.20
2019,05,30,16,27,23.20
2019,05,30,16,28,23.10
2019,05,30,16,29,23.10
2019,05,30,16,30,23.10
2019,05,30,16,31,23.20
2019,05,30,16,32,23.20
2019,05,30,16,33,23.30
2019,05,30,16,34,23.30
2019,05,30,16,35,23.30
2019,05,30,16,36,23.20
2019,05,30,16,37,23.20
2019,05,30,16,38,23.20
2019,05,30,16,39,23.10
2019,05,30,16,40,23.10
2019,05,30,16,41,23.20
2019,05,30,16,42,23.20
2019,05,30,16,43,23.20
2019,05,30,16,44,23.20
2019,05,30,16,45,23.20
2019,05,30,16,46,23.20
2019,05,30,16,47,23.20
2019,05,30,16,48,23.20
2019,05,30,16,49,23.30
2019,05,30,16,50,23.30
2019,05,30,16,51,23.30
2019,05,30,16,52,23.40
2019,05,30,16,53,23.40
2019,05,30,16,54,23.50
2019,05,30,16,55,23.50
2019,05,30,16,56,23.60
2019,05,30,16,57,23.60
2019,05,30,16,58,23.60
2019,05,30,16,59,23.50
2019,05,30,17,00,23.50
2019,05,30,17,01,23.40
2019,05,30,17,02,23.40
2019,05,30,17,03,23.40
2019,05,30,17,04,23.40
2019,05,30,17,05,23.30
2019,05,30,17,06,23.30
2019,05,30,17,07,23.30
2019,05,30,17,08,23.30
2019,05,30,17,09,23.30
2019,05,30,17,10,23.30
2019,05,30,17,11,23.30
2019,05,30,17,12,23.30
2019,05,30,17,13,23.40
2019,05,30,17,14,23.30
2019,05,30,17,15,23.30
2019,05,30,17,16,23.30
2019,05,30,17,17,23.30
2019,05,30,17,18,23.30
2019,05,30,17,19,23.30
2019,05,30,17,20,23.30
2019,05,30,17,21,23.30
2019,05,30,17,22,23.30
2019,05,30,17,23,23.30
2019,05,30,17,24,23.30
2019,05,30,17,25,23.30
2019,05,30,17,26,23.30
2019,05,30,17,27,23.30
2019,05,30,17,28,23.30
2019,05,30,17,29,23.20
2019,05,30,17,30,23.20